Location: Unspecified
(40.7945°N, 111.1337°W)
Time: 14:56:08
(UTC-06:00)

Altair - Pass Details

Date: 29 June 2019
Orbit: 1501 x 1683 km, 47.2° (Epoch: 18 July)

Event Time Altitude Azimuth Distance (km) Brightness Sun altitude
Rises 23:36:10 0° 292° (WNW) 4,753 10.9 -20.9°
Reaches altitude 10° 23:39:13 10° 295° (WNW) 3,792 10.3 -21.2°
Maximum altitude 23:48:57 75° 21° (NNE) 1,682 7.7 -22.0°
Enters shadow 23:58:38 11° 106° (ESE) 3,799 9.2 -22.7°
